Regional Weather Roundup
Issued by NWS Charleston, SC

Current Version | Previous Version | Graphics & Text | Print | Product List | Glossary On
Versions: 1 2 3 4 5 6 7 8 9 10 11 12 13 14 15 16 17 18 19 20 21 22 23 24 25 26 27 28 29 30 31 32 33 34 35 36 37 38 39 40 41 42 43 44 45 46 47 48 49 50
000
ASUS42 KCHS 080627
RWRCHS

REGIONAL WEATHER ROUNDUP
NATIONAL WEATHER SERVICE CHARLESTON SC
100 AM EST MON FEB 08 2016

NOTE: "FAIR" INDICATES FEW OR NO CLOUDS BELOW 12,000 FEET WITH NO
SIGNIFICANT WEATHER AND/OR OBSTRUCTIONS TO VISIBILITY.

NOT ALL STATIONS ARE QUALITY CONTROLLED BY THE NATIONAL
WEATHER SERVICE. USE DATA WITH CAUTION...ESPECIALLY
DEWPOINT OBSERVATIONS.

NOTICE: OBSERVATIONS FOR THE SAVANNAH-HILTON HEAD INTERNATIONAL AIRPORT
/KSAV/ HAVE BEEN TEMPORARILY REMOVED DUE TO AN ERRONEOUS TEMPERATURE
SENSOR. THE OBSERVATION WILL BE REINTRODUCED ONCE REPAIRS ARE COMPLETE.

SCZ027-030-031-034>040-042>050-080700-
...SOUTHEAST SOUTH CAROLINA...

CITY           SKY/WX    TMP DP  RH WIND       PRES   REMARKS
N CHARLESTON   CLEAR     38  28  67 CALM      29.93S
6HR MIN TEMP:  36; 6HR MAX TEMP:  44;

WATERFRONT PRK   N/A     41  30  65 W6        29.77S
MOUNT PLEASANT FAIR      37  32  81 CALM      29.93S
JOHNS ISLAND   FAIR      36  32  87 W5        29.94S WCI  32
PINOPOLIS        N/A     12   5  73 W7        29.85R WCI   2
MONCKS CORNER  FAIR      34  27  75 CALM      29.92F
SUMMERVILLE    NOT AVBL
BEAUFORT MCAS  CLEAR     37  32  82 SW7       29.96F WCI  32
6HR MIN TEMP:  35; 6HR MAX TEMP:  44;

BEAUFORT ARPT  FAIR      37  36  93 SW3       29.96S
HILTON HEAD IS CLEAR     37  36  93 SW5       29.98S WCI  34
WALTERBORO     PTCLDY    36  32  87 CALM      29.94F
ALLENDALE      FAIR      34  34 100 CALM      29.93F

...SOUTHERN MIDLANDS AND PEE DEE...

CITY           SKY/WX    TMP DP  RH WIND       PRES   REMARKS
GEORGETOWN     NOT AVBL
KINGSTREE      NOT AVBL
ORANGEBURG     PTCLDY    34  30  85 CALM      29.93F
6HR MIN TEMP:  32; 6HR MAX TEMP:  43;

BARNWELL       FAIR      34  32  93 CALM      29.94F
AIKEN          FAIR      32  28  86 CALM      29.94F
MANNING        FAIR      32  28  86 CALM      29.91F
COLUMBIA       CLEAR     33  27  78 CALM      29.91F
6HR MIN TEMP:  32; 6HR MAX TEMP:  49;

SUMTER         CLEAR     36  25  64 VRB2      29.88F
6HR MIN TEMP:  35; 6HR MAX TEMP:  44;

FLORENCE       CLEAR     38  26  62 W6        29.88S WCI  33
6HR MIN TEMP:  37; 6HR MAX TEMP:  44;

MYRTLE BEACH   CLEAR     39  25  56 W10       29.88R WCI  32
N MYRTLE BEACH CLEAR     43  25  49 VRB7      29.83F
6HR MIN TEMP:  40; 6HR MAX TEMP:  44;


$$

GAZ063-065-086>088-099>101-113>116-118-119-134>141-150-080700-
...SOUTHEAST GEORGIA...

CITY           SKY/WX    TMP DP  RH WIND       PRES   REMARKS
SAVANNAH ARPT  CLEAR     37  30  75 W8        29.98F WCI  31
6HR MIN TEMP:  37; 6HR MAX TEMP:  47;

HUNTER AAF     CLEAR     39  32  74 W7        29.95F WCI  34
6HR MIN TEMP:  36; 6HR MAX TEMP:  45;

FORT STEWART   CLEAR     39  31  73 SW7       29.97S WCI  34
6HR MIN TEMP:  38; 6HR MAX TEMP:  44;

STATESBORO     CLEAR     45  26  49 W5        29.97S
SYLVANIA       CLEAR     40  33  76 CALM      29.96F
CLAXTON        FAIR      36  35  96 CALM      29.98F

...CSRA...CENTRAL AND FAR SOUTHEAST GEORGIA...

CITY           SKY/WX    TMP DP  RH WIND       PRES   REMARKS
THOMSON        CLEAR     38  31  76 W3        29.99S
AUGUSTA-BUSH   CLEAR     41  26  55 W6        29.94F
6HR MIN TEMP:  40; 6HR MAX TEMP:  47;

AUGUSTA-DANIEL CLEAR     47  22  37 W5        29.93F
SWAINSBORO     FAIR      34  30  86 CALM      29.98F
VIDALIA        CLEAR     37  32  81 W3        29.99F
EASTMAN        FAIR      40  31  69 CALM      30.03S
HAZLEHURST     FAIR      43  31  60 W5        30.00F
ALMA           CLEAR     38  31  76 CALM      30.01F
6HR MIN TEMP:  36; 6HR MAX TEMP:  49;

WAYCROSS       CLEAR     44  34  68 W7        30.02S
JESUP          FAIR      41  34  75 W3        30.01F
BAXLEY         FAIR      43  32  65 W3        30.00F
BRUNSWICK      CLEAR     41  32  70 W5        30.01F
SAINT SIMONS   CLEAR     42  34  73 W6        30.00F
6HR MIN TEMP:  42; 6HR MAX TEMP:  49;


$$

SCZ027-028-034-036>038-045-046-048>050-GAZ119-141-080700-
...LAKE AND SUPPLEMENTAL COASTAL OBSERVATIONS...

STATION/POSITION TIME  TEMP    WIND        PRES    WAVE   SWELL
                       AIR SEA DIR/SP/G            HT/PER HT/PER/DIR
                 (UTC) (F)     (DEG/KT/KT) (MB)    (FT/S) (FT/S/D)
WINYAH BAY       0545   40     280/  4     1010.0F
LAKE MURRAY      0500   40      CALM  /  1 1012.5F
ACE BASIN NERRS  0500   36        CALM     1014.0S
FORT PULASKI     0600   44 53  270/  5/  7 1015.1F
SAPELO ISLAND    0600   45     250/  6     1016.0S

$$

ANZ835-935-AMZ111-154-330-350-352-354-370-450-454-472-080700-
...C-MAN AND BUOY OBSERVATIONS...

STATION/POSITION TIME  TEMP    WIND        PRES    WAVE   SWELL
                       AIR SEA DIR/SP/G            HT/PER HT/PER/DIR
                 (UTC) (F)     (DEG/KT/KT) (MB)    (FT/S) (FT/S/D)
BUOY 41004       0550   52 66  320/ 21/ 27 1011.9R   9/ 6   5/10
BUOY 41008       0550   52 55  280/ 17/ 21 1015.7R   4/ 8   3/ 70/ 8
FOLLY BEACH CMAN 0600   39     260/  5/  6 1013.8R
CAPERS NEARSHORE 0508   47     290/ 14/ 17 1012.5S
FRIPP NEARSHORE  0500   50     260/ 10/ 12 1014.3


STATION/POSITION TIME  TEMP    WIND        PRES    WAVE   SWELL
                       AIR SEA DIR/SP/G            HT/PER HT/PER/DIR
                 (UTC) (F)     (DEG/KT/KT) (MB)    (FT/S) (FT/S/D)
5E ST. MARYS GA  0521      56                N/A     3/13   2/ 80/13
FRYING PAN BUOY  0600   48 62  310/ 27/ 33 1008.5R
BUOY 41025       0550   48 70  340/ 39/ 47  996.1R  19/12  15/100/12
CAPE LOOKOUT NC  NOT AVBL
BUOY 41002       0550   57 69  310/ 41/ 52   N/A    27/14  15/310/14
BUOY 41010       0520   62 74              1015.1R
ST AUGUSTINE FL  0600   43 56  260/  6/  7 1017.8F


$$



USA.gov is the U.S. government's official web portal to all federal, state and local government web resources and services.